DELTA 1 DEB, 13534

Orbit data source: Space-Track

DELTA 1 DEB, 13534 is space debris in LEO originally from a launch on Thu, 29 Jul 1976 UTC launched from the Air Force Western Test Range (AFWTR). Debris objects in space refer to the collection of defunct objects orbiting the Earth. Examples of debris include non-operational satellites, rocket bodies, and fragments generated from explosions, collisions, or faulty payload assembly.

Loading next visibility...
Identifier
13534, 1976-077EG
Orbit
LEO
Country
Flag of USUS
Related business
Manufacturer
Unknown
Mission
Spacecraft
Bus & Motor
Unknown
Mass
Unknown
Launch date (UTC)
1976-07-29 (50 years ago)
Launch vehicle
Unknown
Launch site
Air Force Western Test Range (AFWTR)
Object type
Payload
Rocket body
Debris
Shape & HBR
Unknown shape, 0.1 m
Radar Cross Section
Small (<0.1 m²)

Expand to show TLE details & history
Last TLE update: 1 day ago

TLE from 1 day ago
0 DELTA 1 DEB
1 13534U 76077EG  26134.29226773  .00000168  00000-0  30450-2 0  9996
2 13534 101.8549 252.4631 0396945 253.9093 128.7465 11.68332511 21384
Epoch: 2026-05-14T07:00Z
TLE epoch observation values (Epoch: 2026-05-14T07:00:51.931Z)
Latitude
25.52493°
Longitude
-90.51954°
Altitude
2,039.956 km
Speed
6.795 km/s
True Right ascension
16h 26m 56s
True Declination
25° 24' 42"
Sunlit
Object was in full shadow at epoch
Visualization orbit readout
Latitude
Unknown
Longitude
Unknown
Altitude
Unknown
Speed
Unknown
Apparent Right ascension
Unknown
Apparent Declination
Unknown
Sunlit
N/A
Visualization observer readout
Local Sidereal Time
19:20:59
Azimuth
Unknown
Elevation
Unknown
Doppler factor
Unknown
Orbital elements
Apogee altitude
2,149.051 km
Perigee altitude
1,497.932 km
Semi-major axis
8,201.628 km
Eccentricity
0.03969
Inclination
101.8549°
RAAN
252.4631°
Arg. of periapsis
253.9093°
True anomaly
132.18507°
Mean anomaly
128.7465°
Eccentric anomaly
130.47652°
Mean motion
2.92209 °/min
Orbital period
123.2 mins
BSTAR
0.003045
Loading maneuver chart data...
Computing Atmospheric mass density...
Loading historical data...
Loading historical data...
Loading historical data...
Loading historical data...
Loading historical data...
Loading historical data...
Loading historical data...

Documentation

Showing up to 5 results
|